Regional Weather Roundup
Issued by NWS

Home | Current Version | Previous Version | Text Only | Print | Product List | Glossary On
Versions: 1 2 3 4 5 6 7 8 9 10 11 12 13 14 15 16 17 18 19 20 21 22 23 24 25 26 27 28 29 30 31 32 33 34 35 36 37 38 39 40 41 42 43 44 45 46 47 48 49 50
000
ASUS46 KSEW 220510
RWRWA

WASHINGTON REGIONAL WEATHER ROUNDUP
NATIONAL WEATHER SERVICE SEATTLE WA
900 PM PST TUE FEB 21 2017

NOTE:"FAIR" INDICATES FEW OR NO CLOUDS BELOW 12,000 FEET WITH NO
SIGNIFICANT WEATHER AND/OR OBSTRUCTIONS TO VISIBILITY.

WAZ507-509-555>559-220600-
SEATTLE, TACOMA, EVERETT, AND VICINITY

CITY           SKY/WX    TMP DP  RH WIND       PRES   REMARKS
EVERETT        CLOUDY    39  36  89 NW7       30.10R
BOEING FIELD   LGT RAIN  41  40  96 SE7       30.12R
RENTON         LGT RAIN  41  41 100 VRB3      30.11R
SEATAC AIRPORT CLOUDY    42  37  82 E7        30.10R
JBLM-MCCHORD   MOCLDY    38  38 100 S6        30.10R
PUYALLUP         N/A     39  39 100 VRB7      30.10R
BREMERTON      CLOUDY    37  36  93 CALM      30.11R
JBLM-FT LEWIS  MOCLDY    39  39  99 E7        30.10R
TACOMA NARROWS CLOUDY    41  35  79 S7        30.09R
$$

WAZ001-503-506-510-514-515-220600-
NORTH INTERIOR

CITY           SKY/WX    TMP DP  RH WIND       PRES   REMARKS
BELLINGHAM     MOCLDY    39  36  89 SE3       30.07R
FRIDAY HARBOR  PTCLDY    42  30  62 VRB3      30.09R
EASTSOUND      PTCLDY    37  34  87 CALM      30.07R
PORT ANGELES   CLOUDY    39  33  79 W8        30.11R
EDIZ HOOK      MOCLDY    41  33  72 W13G20    30.11R
PORT TOWNSEND  CLOUDY    41  36  81 W5        30.10R
NAS WHIDBEY    MOCLDY    46  34  62 W21G30    30.12R
ARLINGTON      CLOUDY    37  30  75 CALM      30.12R
BURLINGTON     CLEAR     43  32  65 VRB3      30.09R
$$

WAZ020-022-039-040-504-511-512-220600-
SOUTHWEST INTERIOR

CITY           SKY/WX    TMP DP  RH WIND       PRES   REMARKS
SHELTON        MOCLDY    40  33  76 SW12      30.08R
OLYMPIA        MOCLDY    40  34  79 SW8       30.12R
CHEHALIS       FAIR      37  37 100 CALM      30.14R
KELSO          PTCLDY    38  36  92 CALM      30.17R
VANCOUVER      MOCLDY    39  39 100 CALM      30.17R
SCAPPOOSE, OR  PTCLDY    36  35  96 W5        30.16R
PORTLAND, OR   MOCLDY    40  39  97 CALM      30.17R
$$

WAZ021-516-517-220600-
WASHINGTON COAST

CITY           SKY/WX    TMP DP  RH WIND       PRES   REMARKS
FORKS          MOCLDY    34  33  96 NE5       30.12R
HOQUIAM        PTCLDY    42  35  76 W3        30.14R
ASTORIA, OR    PTCLDY    39  34  82 SW6       30.16R
$$

WAZ019-023-024-040-567>569-220600-
CASCADE MOUNTAINS AND COLUMBIA GORGE

CITY           SKY/WX    TMP DP  RH WIND       PRES   REMARKS
STAMPEDE PASS  NOT AVBL
TROUTDALE, OR  MOCLDY    41  39  93 W3        30.17R
THE DALLES, OR CLOUDY    44  37  76 NW13      30.09R
$$

WAZ026-027-041>044-520-521-220600-
EAST SLOPES

CITY           SKY/WX    TMP DP  RH WIND       PRES   REMARKS
OMAK           MOCLDY    33  29  85 W5        29.96R
WENATCHEE      CLOUDY    37  31  78 CALM      29.97R
ELLENSBURG     MOCLDY    36  27  69 NW10      29.98R
YAKIMA         CLOUDY    36  33  89 CALM      30.02R
SUNNYSIDE ARPT FOG       32  32  99 CALM      30.03R VSB 1/4
$$

WAZ028-034-035-220600-
COLUMBIA BASIN

CITY           SKY/WX    TMP DP  RH WIND       PRES   REMARKS
EPHRATA        FOG       34  31  88 CALM      29.97R VSB 1/4
MOSES LAKE     FOG       32  32 100 CALM      29.98R VSB 1/4
PASCO          CLOUDY    40  36  86 CALM      30.02R
HERMISTON, OR  CLOUDY    43  37  79 SW7       30.04R
$$

WAZ036>038-220600-
NORTHEAST WASHINGTON

CITY           SKY/WX    TMP DP  RH WIND       PRES   REMARKS
SPOKANE GEIGER DRIZZLE   32  31  96 SW9       29.94R FOG
SPOKANE FELTS  CLOUDY    34  34 100 SW5       29.96R FOG
FAIRCHILD AFB  CLOUDY    32  32 100 SW7       29.93R FOG
COEURDALENE,ID CLOUDY    33  32  96 SW14      29.94R WCI  23
DEER PARK      CLOUDY    33  31  92 S8        29.94R
$$

WAZ029>033-220600-
SOUTHEAST WASHINGTON

CITY           SKY/WX    TMP DP  RH WIND       PRES   REMARKS
PULLMAN        FLURRIES  33  32  96 W8        29.96R
LEWISTON, ID   CLOUDY    38  35  89 NE6       29.98S
WALLA WALLA    CLOUDY    41  38  89 S10       30.02R
PENDLETON, OR  LGT RAIN  40  38  93 W7        30.02R
$$



USA.gov is the U.S. government's official web portal to all federal, state and local government web resources and services.